Year,Month,Day,Hour,Minute,Value (Times are PST for temperature in C)
2014,05,03,09,51,9.90
2014,05,03,09,52,9.90
2014,05,03,09,53,9.90
2014,05,03,09,54,9.90
2014,05,03,09,55,9.90
2014,05,03,09,56,9.90
2014,05,03,09,57,9.90
2014,05,03,09,58,9.90
2014,05,03,09,59,10.00
2014,05,03,10,00,10.10
2014,05,03,10,01,10.10
2014,05,03,10,02,10.10
2014,05,03,10,03,10.10
2014,05,03,10,04,10.10
2014,05,03,10,05,10.10
2014,05,03,10,06,10.10
2014,05,03,10,07,10.20
2014,05,03,10,08,10.20
2014,05,03,10,09,10.30
2014,05,03,10,10,10.30
2014,05,03,10,11,10.30
2014,05,03,10,12,10.30
2014,05,03,10,13,10.40
2014,05,03,10,14,10.40
2014,05,03,10,15,10.40
2014,05,03,10,16,10.40
2014,05,03,10,17,10.30
2014,05,03,10,18,10.40
2014,05,03,10,19,10.40
2014,05,03,10,20,10.40
2014,05,03,10,21,10.40
2014,05,03,10,22,10.40
2014,05,03,10,23,10.40
2014,05,03,10,24,10.40
2014,05,03,10,25,10.40
2014,05,03,10,26,10.40
2014,05,03,10,27,10.40
2014,05,03,10,28,10.40
2014,05,03,10,29,10.40
2014,05,03,10,30,10.30
2014,05,03,10,31,10.30
2014,05,03,10,32,10.30
2014,05,03,10,33,10.30
2014,05,03,10,34,10.30
2014,05,03,10,35,10.30
2014,05,03,10,36,10.20
2014,05,03,10,37,10.20
2014,05,03,10,38,10.20
2014,05,03,10,39,10.10
2014,05,03,10,40,10.10
2014,05,03,10,41,10.10
2014,05,03,10,42,10.10
2014,05,03,10,43,10.10
2014,05,03,10,44,10.00
2014,05,03,10,45,10.00
2014,05,03,10,46,10.00
2014,05,03,10,47,10.00
2014,05,03,10,48,10.10
2014,05,03,10,49,10.10
2014,05,03,10,50,10.10
2014,05,03,10,51,10.10
2014,05,03,10,52,10.10
2014,05,03,10,53,10.10
2014,05,03,10,54,10.20
2014,05,03,10,55,10.20
2014,05,03,10,56,10.20
2014,05,03,10,57,10.20
2014,05,03,10,58,10.20
2014,05,03,10,59,10.20
2014,05,03,11,00,10.20
2014,05,03,11,01,10.20
2014,05,03,11,02,10.20
2014,05,03,11,03,10.20
2014,05,03,11,04,10.30
2014,05,03,11,05,10.30
2014,05,03,11,06,10.40
2014,05,03,11,07,10.40
2014,05,03,11,08,10.30
2014,05,03,11,09,10.30
2014,05,03,11,10,10.30
2014,05,03,11,11,10.30
2014,05,03,11,12,10.30
2014,05,03,11,13,10.30
2014,05,03,11,14,10.40
2014,05,03,11,15,10.40
2014,05,03,11,16,10.40
2014,05,03,11,17,10.50
2014,05,03,11,18,10.60
2014,05,03,11,19,10.60
2014,05,03,11,20,10.60
2014,05,03,11,21,10.70
2014,05,03,11,22,10.70
2014,05,03,11,23,10.70
2014,05,03,11,24,10.60
2014,05,03,11,25,10.60
2014,05,03,11,26,10.60
2014,05,03,11,27,10.60
2014,05,03,11,28,10.70
2014,05,03,11,29,10.60
2014,05,03,11,30,10.60
2014,05,03,11,31,10.60
2014,05,03,11,32,10.60
2014,05,03,11,33,10.60
2014,05,03,11,34,10.60
2014,05,03,11,35,10.60
2014,05,03,11,36,10.60
2014,05,03,11,37,10.60
2014,05,03,11,38,10.60
2014,05,03,11,39,10.60
2014,05,03,11,40,10.60
2014,05,03,11,41,10.60
2014,05,03,11,42,10.60
2014,05,03,11,43,10.70
2014,05,03,11,44,10.80
2014,05,03,11,45,10.90
2014,05,03,11,46,11.00
2014,05,03,11,47,11.10
2014,05,03,11,48,11.20
2014,05,03,11,49,11.20
2014,05,03,11,50,11.10
2014,05,03,11,51,11.10
2014,05,03,11,52,11.00
2014,05,03,11,53,10.90
2014,05,03,11,54,10.80
2014,05,03,11,55,10.80
2014,05,03,11,56,10.80
2014,05,03,11,57,10.90
2014,05,03,11,58,10.90
2014,05,03,11,59,11.00
2014,05,03,12,00,10.90
2014,05,03,12,01,10.90
2014,05,03,12,02,10.90
2014,05,03,12,03,10.90
2014,05,03,12,04,10.90
2014,05,03,12,05,11.00
2014,05,03,12,06,11.10
2014,05,03,12,07,11.10
2014,05,03,12,08,11.20
2014,05,03,12,09,11.30
2014,05,03,12,10,11.30
2014,05,03,12,11,11.30
2014,05,03,12,12,11.30
2014,05,03,12,13,11.30
2014,05,03,12,14,11.30
2014,05,03,12,15,11.30
2014,05,03,12,16,11.40
2014,05,03,12,17,11.50
2014,05,03,12,18,11.50
2014,05,03,12,19,11.60
2014,05,03,12,20,11.70
2014,05,03,12,21,11.80
2014,05,03,12,22,11.90
2014,05,03,12,23,12.00
2014,05,03,12,24,12.10
2014,05,03,12,25,12.20
2014,05,03,12,26,12.30
2014,05,03,12,27,12.50
2014,05,03,12,28,12.60
2014,05,03,12,29,12.70
2014,05,03,12,30,12.70
2014,05,03,12,31,12.70
2014,05,03,12,32,12.70
2014,05,03,12,33,12.70
2014,05,03,12,34,12.60
2014,05,03,12,35,12.60
2014,05,03,12,36,12.50
2014,05,03,12,37,12.50
2014,05,03,12,38,12.50
2014,05,03,12,39,12.50
2014,05,03,12,40,12.50
2014,05,03,12,41,12.40
2014,05,03,12,42,12.40
2014,05,03,12,43,12.50
2014,05,03,12,44,12.50
2014,05,03,12,45,12.40
2014,05,03,12,46,12.50
2014,05,03,12,47,12.50
2014,05,03,12,48,12.50
2014,05,03,12,49,12.50
2014,05,03,12,50,12.50
2014,05,03,12,51,12.40
2014,05,03,12,52,12.40
2014,05,03,12,53,12.40
2014,05,03,12,54,12.40
2014,05,03,12,55,12.40
2014,05,03,12,56,12.50
2014,05,03,12,57,12.60
2014,05,03,12,58,12.80
2014,05,03,12,59,12.80
2014,05,03,13,00,12.80
2014,05,03,13,01,12.70
2014,05,03,13,02,12.70
2014,05,03,13,03,12.80
2014,05,03,13,04,12.80
2014,05,03,13,05,12.90
2014,05,03,13,06,13.00
2014,05,03,13,07,13.10
2014,05,03,13,08,13.20
2014,05,03,13,09,13.30
2014,05,03,13,10,13.40
2014,05,03,13,11,13.40
2014,05,03,13,12,13.40
2014,05,03,13,13,13.40
2014,05,03,13,14,13.40
2014,05,03,13,15,13.40
2014,05,03,13,16,13.40
2014,05,03,13,17,13.30
2014,05,03,13,18,13.30
2014,05,03,13,19,13.30
2014,05,03,13,20,13.20
2014,05,03,13,21,13.20
2014,05,03,13,22,13.20
2014,05,03,13,23,13.30
2014,05,03,13,24,13.30
2014,05,03,13,25,13.30
2014,05,03,13,26,13.30
2014,05,03,13,27,13.20
2014,05,03,13,28,13.20
2014,05,03,13,29,13.20
2014,05,03,13,30,13.30
2014,05,03,13,31,13.40
2014,05,03,13,32,13.60
2014,05,03,13,33,13.60
2014,05,03,13,34,13.70
2014,05,03,13,35,13.60
2014,05,03,13,36,13.60
2014,05,03,13,37,13.60
2014,05,03,13,38,13.60
2014,05,03,13,39,13.60
2014,05,03,13,40,13.70
2014,05,03,13,41,13.80
2014,05,03,13,42,13.80
2014,05,03,13,43,13.70
2014,05,03,13,44,13.70
2014,05,03,13,45,13.70
2014,05,03,13,46,13.80
2014,05,03,13,47,13.80
2014,05,03,13,48,13.80
2014,05,03,13,49,13.80
2014,05,03,13,50,13.60
2014,05,03,13,51,13.40
2014,05,03,13,52,13.30
2014,05,03,13,53,13.30
2014,05,03,13,54,13.30
2014,05,03,13,55,13.30
2014,05,03,13,56,13.30
2014,05,03,13,57,13.20
2014,05,03,13,58,13.30
2014,05,03,13,59,13.30
2014,05,03,14,00,13.40
2014,05,03,14,01,13.50
2014,05,03,14,02,13.50
2014,05,03,14,03,13.50
2014,05,03,14,04,13.50
2014,05,03,14,05,13.70
2014,05,03,14,06,13.70
2014,05,03,14,07,13.80
2014,05,03,14,08,13.80
2014,05,03,14,09,13.90
2014,05,03,14,10,13.90
2014,05,03,14,11,13.90
2014,05,03,14,12,13.90
2014,05,03,14,13,13.80
2014,05,03,14,14,13.70
2014,05,03,14,15,13.60
2014,05,03,14,16,13.60
2014,05,03,14,17,13.50
2014,05,03,14,18,13.40
2014,05,03,14,19,13.40
2014,05,03,14,20,13.40
2014,05,03,14,21,13.50
2014,05,03,14,22,13.60
2014,05,03,14,23,13.70
2014,05,03,14,24,13.80
2014,05,03,14,25,13.80
2014,05,03,14,26,13.80
2014,05,03,14,27,13.80
2014,05,03,14,28,13.80
2014,05,03,14,29,13.80
2014,05,03,14,30,13.80
2014,05,03,14,31,13.70
2014,05,03,14,32,13.70
2014,05,03,14,33,13.60
2014,05,03,14,34,13.50
2014,05,03,14,35,13.40
2014,05,03,14,36,13.30
2014,05,03,14,37,13.30
2014,05,03,14,38,13.30
2014,05,03,14,39,13.30
2014,05,03,14,40,13.30
2014,05,03,14,41,13.30
2014,05,03,14,42,13.30
2014,05,03,14,43,13.30
2014,05,03,14,44,13.30
2014,05,03,14,45,13.30
2014,05,03,14,46,13.30
2014,05,03,14,47,13.40
2014,05,03,14,48,13.50
2014,05,03,14,49,13.60
2014,05,03,14,50,13.70
2014,05,03,14,51,13.80
2014,05,03,14,52,13.80
2014,05,03,14,53,13.90
2014,05,03,14,54,13.90
2014,05,03,14,55,13.90
2014,05,03,14,56,13.80
2014,05,03,14,57,13.80
2014,05,03,14,58,13.90
2014,05,03,14,59,14.00
2014,05,03,15,00,13.90
2014,05,03,15,01,13.90
2014,05,03,15,02,13.90
2014,05,03,15,03,14.00
2014,05,03,15,04,13.90
2014,05,03,15,05,13.90
2014,05,03,15,06,13.80
2014,05,03,15,07,13.80
2014,05,03,15,08,13.70
2014,05,03,15,09,13.60
2014,05,03,15,10,13.60
2014,05,03,15,11,13.60
2014,05,03,15,12,13.60
2014,05,03,15,13,13.60
2014,05,03,15,14,13.60
2014,05,03,15,15,13.60
2014,05,03,15,16,13.70
2014,05,03,15,17,13.70
2014,05,03,15,18,13.80
2014,05,03,15,19,13.80
2014,05,03,15,20,13.80
2014,05,03,15,21,13.80
2014,05,03,15,22,13.90
2014,05,03,15,23,13.90
2014,05,03,15,24,13.90
2014,05,03,15,25,13.90
2014,05,03,15,26,13.90
2014,05,03,15,27,13.90
2014,05,03,15,28,14.00
2014,05,03,15,29,14.00
2014,05,03,15,30,14.10
2014,05,03,15,31,14.10
2014,05,03,15,32,14.10
2014,05,03,15,33,14.10
2014,05,03,15,34,14.10
2014,05,03,15,35,14.10
2014,05,03,15,36,14.10
2014,05,03,15,37,14.10
2014,05,03,15,38,14.10
2014,05,03,15,39,14.00
2014,05,03,15,40,14.00
2014,05,03,15,41,13.90
2014,05,03,15,42,13.90
2014,05,03,15,43,13.90
2014,05,03,15,44,13.90
2014,05,03,15,45,13.90
2014,05,03,15,46,13.90
2014,05,03,15,47,13.90
2014,05,03,15,48,13.80
2014,05,03,15,49,13.80
2014,05,03,15,50,13.70
2014,05,03,15,51,13.70
2014,05,03,15,52,13.70
2014,05,03,15,53,13.60
2014,05,03,15,54,13.60
2014,05,03,15,55,13.50
2014,05,03,15,56,13.40
2014,05,03,15,57,13.40
2014,05,03,15,58,13.40
2014,05,03,15,59,13.40
2014,05,03,16,00,13.40
2014,05,03,16,01,13.40
2014,05,03,16,02,13.40
2014,05,03,16,03,13.40
2014,05,03,16,04,13.40
2014,05,03,16,05,13.30
2014,05,03,16,06,13.30
2014,05,03,16,07,13.20
2014,05,03,16,08,13.20
2014,05,03,16,09,13.10
2014,05,03,16,10,13.10
2014,05,03,16,11,13.10
2014,05,03,16,12,13.10
2014,05,03,16,13,13.10
2014,05,03,16,14,13.00
2014,05,03,16,15,13.00
2014,05,03,16,16,13.00
2014,05,03,16,17,13.00
2014,05,03,16,18,13.00
2014,05,03,16,19,13.00
2014,05,03,16,20,13.10
2014,05,03,16,21,13.10
2014,05,03,16,22,13.10
2014,05,03,16,23,13.10
2014,05,03,16,24,13.10
2014,05,03,16,25,13.10
2014,05,03,16,26,13.10
2014,05,03,16,27,13.10
2014,05,03,16,28,13.10
2014,05,03,16,29,13.10
2014,05,03,16,30,13.10
2014,05,03,16,31,13.20
2014,05,03,16,32,13.20
2014,05,03,16,33,13.30
2014,05,03,16,34,13.30
2014,05,03,16,35,13.40
2014,05,03,16,36,13.40
2014,05,03,16,37,13.40
2014,05,03,16,38,13.40
2014,05,03,16,39,13.40
2014,05,03,16,40,13.40
2014,05,03,16,41,13.30
2014,05,03,16,42,13.30
2014,05,03,16,43,13.30
2014,05,03,16,44,13.30
2014,05,03,16,45,13.30
2014,05,03,16,46,13.30
2014,05,03,16,47,13.30
2014,05,03,16,48,13.40
2014,05,03,16,49,13.40
2014,05,03,16,50,13.40
2014,05,03,16,51,13.50
2014,05,03,16,52,13.50
2014,05,03,16,53,13.60
2014,05,03,16,54,13.60
2014,05,03,16,55,13.60
2014,05,03,16,56,13.60
2014,05,03,16,57,13.60
2014,05,03,16,58,13.60
2014,05,03,16,59,13.60
2014,05,03,17,00,13.60
2014,05,03,17,01,13.60
2014,05,03,17,02,13.60
2014,05,03,17,03,13.60
2014,05,03,17,04,13.60
2014,05,03,17,05,13.50
2014,05,03,17,06,13.50
2014,05,03,17,07,13.40
2014,05,03,17,08,13.40
2014,05,03,17,09,13.30
2014,05,03,17,10,13.30
2014,05,03,17,11,13.30
2014,05,03,17,12,13.20
2014,05,03,17,13,13.20
2014,05,03,17,14,13.20
2014,05,03,17,15,13.20
2014,05,03,17,16,13.20
2014,05,03,17,17,13.20
2014,05,03,17,18,13.20
2014,05,03,17,19,13.20
2014,05,03,17,20,13.20
2014,05,03,17,21,13.20
2014,05,03,17,22,13.20
2014,05,03,17,23,13.20
2014,05,03,17,24,13.20
2014,05,03,17,25,13.20
2014,05,03,17,26,13.30
2014,05,03,17,27,13.30
2014,05,03,17,28,13.30
2014,05,03,17,29,13.30
2014,05,03,17,30,13.30
2014,05,03,17,31,13.30
2014,05,03,17,32,13.30
2014,05,03,17,33,13.30
2014,05,03,17,34,13.20
2014,05,03,17,35,13.20
2014,05,03,17,36,13.20
2014,05,03,17,37,13.20
2014,05,03,17,38,13.20
2014,05,03,17,39,13.20
2014,05,03,17,40,13.20
2014,05,03,17,41,13.20
2014,05,03,17,42,13.20
2014,05,03,17,43,13.20
2014,05,03,17,44,13.10
2014,05,03,17,45,13.00
2014,05,03,17,46,13.00
2014,05,03,17,47,12.90
2014,05,03,17,48,12.90
2014,05,03,17,49,12.80
2014,05,03,17,50,12.80
2014,05,03,17,51,12.70
2014,05,03,17,52,12.70
2014,05,03,17,53,12.70
2014,05,03,17,54,12.70
2014,05,03,17,55,12.70
2014,05,03,17,56,12.70
2014,05,03,17,57,12.70
2014,05,03,17,58,12.70
2014,05,03,17,59,12.80
2014,05,03,18,00,12.80
2014,05,03,18,01,12.80
2014,05,03,18,02,12.90
2014,05,03,18,03,12.90
2014,05,03,18,04,13.00
2014,05,03,18,05,13.00
2014,05,03,18,06,13.10
2014,05,03,18,07,13.10
2014,05,03,18,08,13.10
2014,05,03,18,09,13.00
2014,05,03,18,10,13.00
2014,05,03,18,11,12.90
2014,05,03,18,12,12.90
2014,05,03,18,13,12.90
2014,05,03,18,14,12.80
2014,05,03,18,15,12.80
2014,05,03,18,16,12.80
2014,05,03,18,17,12.80
2014,05,03,18,18,12.80
2014,05,03,18,19,12.80
2014,05,03,18,20,12.70
2014,05,03,18,21,12.70
2014,05,03,18,22,12.60
2014,05,03,18,23,12.60
2014,05,03,18,24,12.60
2014,05,03,18,25,12.60
2014,05,03,18,26,12.60
2014,05,03,18,27,12.60
2014,05,03,18,28,12.60
2014,05,03,18,29,12.60
2014,05,03,18,30,12.60
2014,05,03,18,31,12.50
2014,05,03,18,32,12.50
2014,05,03,18,33,12.50
2014,05,03,18,34,12.50
2014,05,03,18,35,12.50
2014,05,03,18,36,12.50
2014,05,03,18,37,12.40
2014,05,03,18,38,12.40
2014,05,03,18,39,12.40
2014,05,03,18,40,12.40
2014,05,03,18,41,12.40
2014,05,03,18,42,12.40
2014,05,03,18,43,12.40
2014,05,03,18,44,12.40
2014,05,03,18,45,12.40
2014,05,03,18,46,12.40
2014,05,03,18,47,12.40
2014,05,03,18,48,12.40
2014,05,03,18,49,12.40
2014,05,03,18,50,12.40
2014,05,03,18,51,12.40
2014,05,03,18,52,12.40
2014,05,03,18,53,12.40
2014,05,03,18,54,12.40
2014,05,03,18,55,12.30
2014,05,03,18,56,12.30
2014,05,03,18,57,12.40
2014,05,03,18,58,12.30
2014,05,03,18,59,12.30
2014,05,03,19,00,12.30
2014,05,03,19,01,12.30
2014,05,03,19,02,12.30
2014,05,03,19,03,12.30
2014,05,03,19,04,12.30
2014,05,03,19,05,12.30
2014,05,03,19,06,12.30
2014,05,03,19,07,12.30
2014,05,03,19,08,12.30
2014,05,03,19,09,12.30
2014,05,03,19,10,12.30
2014,05,03,19,11,12.30
